AirNav   Everest Fuels
 
 1379 users online  

8NC8 Lake Ridge Aero Park Airport
Durham, North Carolina, USA

GOING TO DURHAM?


FAA INFORMATION EFFECTIVE 21 MAY 2020

Location

FAA Identifier: 8NC8
Lat/Long: 36-03-36.5220N 078-47-00.0190W
36-03.608700N 078-47.000317W
36.0601450,-78.7833386
(estimated)
Elevation: 309 ft. / 94.2 m (surveyed)
Variation: 07W (1985)
From city: 7 miles NE of DURHAM, NC
Time zone: UTC -4 (UTC -5 during Standard Time)
Zip code: 27704

Airport Operations

Airport use: Private use. Permission required prior to landing
Activation date: 09/1948
Control tower: no
ARTCC: WASHINGTON CENTER
FSS: RALEIGH FLIGHT SERVICE STATION
Attendance: UNATNDD
Pattern altitude: 1409 ft. MSL
Wind indicator: yes
Segmented circle: no
Lights: SS-SR

Airport Communications

WX ASOS at RDU (11 nm S): PHONE 919-840-0816
WX AWOS-3 at TDF (17 nm NW): 126.725 (336-364-1651)

Nearby radio navigation aids

VOR radial/distance  VOR name  Freq  Var
RDUr009/11.3RALEIGH/DURHAM VORTAC117.2009W
SBVr168/38.5SOUTH BOSTON VORTAC110.4005W

 
NDB name  Hdg/Dist  Freq  Var  ID
LEEVY346/8.535007WLE .-.. .
HUNTSBORO218/16.527109WHXO .... -..- ---
PERSON135/17.222008WHUR .... ..- .-.
HARNETT000/38.041708WHQT .... --.- -

Airport Services

Fuel available: 100LL
Parking: hangars
Airframe service: NONE
Powerplant service: NONE
Bottled oxygen: NONE
Bulk oxygen: NONE

Runway Information

Runway 14/32

Dimensions: 3200 x 150 ft. / 975 x 46 m
Surface: turf
CENTER 30' FAIR.
Runway edge lights: low intensity
RWY LGTS NON STANDARD.
RUNWAY 14  RUNWAY 32
Traffic pattern: leftleft
Runway end identifier lights: nono
Obstructions: 50 ft. trees, 300 ft. from runway, 75 ft. left of centerline
POLE & FENCE 299' AND SIGN 100' FM THR.
75 ft. trees, 300 ft. from runway, 75 ft. both sides of centerline

Airport Ownership and Management from official FAA records

Ownership: Privately-owned
Owner: BRNJ INC
100 CITATION CIRCLE
DURHAM, NC 27704
Phone 919-688-6358
Manager: RANDY SMITH
100 CITATION CIRCLE
DURHAM, NC 27704
Phone 919-688-6358
CELL # 919-630-2072

Airport Operational Statistics

Aircraft based on the field: 51
Single engine airplanes: 50
Ultralights: 1
    
Aircraft operations: avg 25/week *
77% local general aviation
23% transient general aviation
* for 12-month period ending 18 May 1981

Additional Remarks

RY SOFT WHEN WET.
FOR CD CTC WASHINGTON ARTCC AT 703-771-3587.

Instrument Procedures

There are no published instrument procedures at 8NC8.

Some nearby airports with instrument procedures:

KRDU - Raleigh-Durham International Airport (11 nm S)
KTDF - Raleigh Regional Airport at Person County (17 nm NW)
KHNZ - Henderson-Oxford Airport (22 nm NE)
KLHZ - Triangle North Executive Airport (22 nm E)
KTTA - Raleigh Executive Jetport at Sanford-Lee County Airport (33 nm SW)
 
Loc | Ops | Rwys | IFR | FBO | Links
Com | Nav | Svcs | Stats | Notes
Area around 8NC8 (Lake Ridge Aero Park Airport)
 
Road maps at: MapQuest Bing Google
 
Aerial photo
WARNING: Photo may not be current or correct
Aerial photo of 8NC8 (Lake Ridge Aero Park Airport)
Photo taken 20-Jul-2008
on final for runway 32

Do you have a better or more recent aerial photo of Lake Ridge Aero Park Airport that you would like to share? If so, please send us your photo.

 
Sectional chart

 
Airport distance calculator
Flying to Lake Ridge Aero Park Airport? Find the distance to fly.

From to 8NC8

Sunrise and sunset
Times for 05-Jun-2020
 Local
(UTC-4)
 Zulu
(UTC)
Morning civil twilight05:2909:29
Sunrise05:5909:59
Sunset20:2800:28
Evening civil twilight20:5800:58

Current date and time
Zulu (UTC)  05-Jun-2020 17:05:40
Local (UTC-4)  05-Jun-2020 13:05:40
 
METAR
KRDU 
12nm S 
051651Z 21007KT 170V230 10SM BKN018 BKN045 BKN250 27/22 A2998 RMK AO2 SLP146 T02670217
KTDF 
17nm NW 
051655Z AUTO 19007KT 10SM SCT040 BKN100 26/20 A2999 RMK AO2
KHNZ 
22nm NE 
051655Z AUTO 19005KT 10SM -RA SCT008 BKN014 OVC029 23/22 A2998 RMK AO2 P0001 T02250216
KLHZ 
22nm E 
051655Z AUTO 19010G15KT 10SM BKN021 BKN037 OVC060 26/21 A3000 RMK AO2
TAF
KRDU 
12nm S 
051533Z 0516/0612 20009KT P6SM VCSH BKN015 FM051700 20010KT P6SM BKN040 FM060100 21006KT P6SM VCTS SCT040CB BKN070
NOTAMs
Click for the latest NOTAMs
NOTAMs are issued by the DoD/FAA and will open in a separate window not controlled by AirNav.

 

 
 

FBO, Fuel Providers, and Aircraft Ground Support

  
 Business Name 
 
 Contact 
 
 Services / Description 
 
Fuel Prices
 
Comments
  
Lake Ridge Aero Park 919-688-2928
no information available

If you are affiliated with Lake Ridge Aero Park and would like to show here your services, contact info, web link, logo, and more, click here
100LL
AS $5.25 
 Updated 16-Apr-2019
 
   write
AS=Assisted/Self Service
Update Fuel Prices
 

Would you like to see your business listed on this page?

 If your business provides an interesting product or service to pilots, flight crews, aircraft, or users of the Lake Ridge Aero Park Airport, you should consider listing it here.  To start the listing process, click on the button below
 
Add a business
 

Other Pages about Lake Ridge Aero Park Airport

Update a link
 
Copyright © AirNav, LLC. All rights reserved. Privacy Policy  Contact